Wind_Speed
6 5 5 6 7 8 5 1 1 1 1 2 2 1 1 2 2 3 3 3 1 1 2 2 3 3 3 3 5 5 5 2 3 2 1 4 9 17 18 19 27 25 23 23 23 24 24 25 25 25 24 25 26 26 27 27 26 26 26 26 26 25 24 23 23 23 22 22 21 21 21 20 19 19 18 17 17 18 19 19 18 17 17 17 17 16 15 15 15 14 14 14 14 13 13 13 13
6 5 6 7 7 5 2 1 1 1 2 2 3 2 1 2 1 2 4 3 2 3 2 5 7 6 5 5 6 5 5 5 4 3 3 9 14 16 17 20 25 24 23 23 23 24 23 25 26 25 25 25 26 27 27 26 26 26 25 25 26 26 25 24 24 23 23 23 22 22 20 19 19 18 18 17 16 17 17 18 17 17 17 16 16 15 15 15 14 14 14 14 14 13 13 13 13
6 5 7 8 4 0 2 0 2 2 3 4 3 2 1 2 2 3 2 2 5 4 2 4 6 6 3 4 4 3 3 4 5 5 5 12 13 14 18 20 22 22 23 23 22 22 22 24 26 26 25 25 26 27 27 27 27 26 26 26 26 26 25 25 24 23 23 22 21 20 19 19 18 18 18 17 16 17 18 17 17 17 17 16 15 15 15 14 14 14 14 14 13 13 13 13 14
5 6 8 7 2 0 2 1 1 2 4 4 2 2 3 3 3 2 4 6 6 2 0 2 4 4 3 5 4 3 4 4 5 5 6 10 11 16 19 20 21 21 22 21 20 21 21 24 25 26 26 25 26 27 27 27 27 27 26 26 26 25 24 24 23 22 21 20 20 19 18 18 18 18 17 17 16 17 18 18 17 16 17 16 16 15 15 14 14 14 14 14 13 13 13 14 14
6 6 6 4 1 1 2 1 1 2 4 2 0 2 4 4 2 1 2 2 4 2 1 3 3 3 4 6 2 1 4 5 6 6 8 11 13 17 19 20 20 20 20 20 20 20 21 24 25 26 27 26 25 26 27 27 26 26 26 25 24 23 22 22 21 20 19 19 19 18 17 17 16 17 17 16 16 17 17 17 16 16 16 15 15 15 14 14 14 14 14 14 13 12 13 13 13
6 6 3 1 0 0 2 2 2 4 3 2 1 2 4 3 3 4 2 5 3 3 2 3 4 6 5 4 2 3 3 2 5 6 10 14 16 17 18 20 19 19 20 19 19 19 21 24 25 25 27 26 25 25 25 25 25 25 24 24 23 22 21 20 20 20 19 18 18 17 16 16 15 16 17 17 17 17 17 16 15 15 14 14 14 14 14 14 15 15 14 14 13 13 14 12 10
7 5 1 2 1 1 2 3 4 4 2 3 2 0 3 3 4 6 5 3 1 3 2 4 8 9 5 2 3 4 5 1 5 8 12 15 17 17 18 18 18 19 19 20 19 19 22 24 25 24 24 26 26 24 24 24 24 23 23 23 22 21 21 20 19 19 19 18 17 16 15 15 15 15 16 17 16 16 15 15 15 14 13 14 14 13 13 14 15 14 14 14 14 13 13 12 10
6 2 1 2 2 1 2 2 3 3 1 3 3 3 5 5 5 6 5 2 1 2 4 7 8 6 4 2 3 4 5 2 8 13 14 16 18 17 17 18 19 20 19 20 20 21 22 23 24 24 23 24 24 23 23 23 23 22 22 22 21 21 20 19 19 18 18 17 16 15 14 14 14 15 15 15 14 14 14 14 14 13 12 13 14 13 13 13 14 14 12 13 12 12 12 11 9
3 1 1 1 2 0 1 2 2 2 3 4 4 6 7 5 6 7 6 4 2 4 7 8 4 4 6 5 3 3 4 7 14 16 15 17 18 17 17 18 20 20 20 20 21 22 22 23 24 24 24 24 24 23 23 24 22 22 21 20 20 20 20 19 18 18 17 17 16 15 14 14 14 14 14 14 13 14 13 13 13 12 11 12 13 13 12 13 13 13 12 12 11 11 11 10 9
1 1 1 1 2 2 2 2 1 1 4 5 5 8 6 3 6 8 8 5 5 7 6 4 2 6 9 7 4 2 2 10 16 16 15 17 17 17 17 18 19 20 20 20 21 22 22 23 23 25 25 25 25 23 22 23 22 21 20 19 19 19 20 19 18 18 17 16 16 15 15 14 14 14 13 13 12 13 12 12 12 11 10 12 13 11 11 12 11 12 12 11 11 11 10 9 8
1 1 1 1 2 3 3 2 1 2 3 4 5 7 5 3 5 8 8 5 7 9 7 5 7 11 10 6 3 2 5 12 15 16 16 17 17 17 18 17 18 20 21 21 22 21 22 22 23 24 24 24 25 23 21 21 21 20 18 17 18 19 20 19 18 17 17 16 15 14 14 14 13 13 12 12 11 11 11 11 11 10 10 12 12 11 10 10 10 11 11 11 10 10 10 8 7
1 1 1 2 2 2 2 1 1 3 4 3 3 4 5 2 4 6 8 6 8 10 8 5 8 9 8 6 2 4 8 11 13 15 16 17 17 16 17 17 18 20 22 22 21 21 21 21 22 23 24 23 23 23 21 19 19 18 17 17 17 19 19 19 18 17 16 15 15 14 13 13 13 12 12 11 11 11 10 10 10 10 10 10 11 10 9 9 9 9 10 10 9 9 9 8 7
1 2 2 2 1 1 1 1 1 3 3 0 2 7 7 1 1 3 7 9 9 10 6 4 9 7 6 6 3 6 8 9 13 15 16 17 17 16 16 17 18 20 22 22 21 21 21 21 21 22 23 22 22 21 20 19 17 17 16 16 17 18 19 18 17 16 15 15 14 13 13 12 12 11 11 11 11 10 10 10 10 10 9 8 9 9 8 8 9 9 9 9 8 9 9 9 8
1 1 2 2 0 1 2 1 2 2 0 2 1 6 5 3 3 2 8 11 8 5 5 6 8 6 6 7 3 6 8 11 15 15 16 17 17 17 16 17 19 20 20 20 21 21 21 21 21 21 23 23 22 21 19 18 17 16 15 15 17 18 18 18 17 16 15 14 13 13 12 11 11 10 10 10 10 9 9 9 10 10 9 8 9 9 8 9 10 10 10 9 9 9 9 9 9
2 1 1 1 1 2 2 1 2 2 2 2 2 4 3 4 3 3 4 5 6 3 5 6 1 2 6 9 5 8 11 15 16 16 17 17 17 17 17 18 18 18 18 19 19 20 19 19 20 20 21 22 23 21 18 17 16 15 15 16 17 17 18 17 16 15 14 14 13 13 11 10 10 9 9 9 9 8 8 8 9 10 9 8 9 9 9 9 11 11 11 10 9 9 9 9 8
1 1 1 1 2 2 3 2 2 2 2 1 2 3 3 6 4 3 4 1 6 3 3 3 4 3 6 6 6 14 18 18 17 17 18 17 17 17 17 17 16 16 17 18 18 19 18 17 19 19 19 20 22 21 18 16 15 14 15 17 17 17 16 15 15 15 14 14 13 12 11 10 8 8 8 9 8 8 8 8 9 10 9 8 9 9 9 10 11 11 10 10 9 9 9 9 9
1 1 1 2 2 3 4 4 3 2 0 1 3 5 4 5 3 3 4 6 8 4 4 3 4 2 3 4 11 21 21 19 19 18 18 17 16 16 16 16 15 16 15 16 17 18 17 17 18 17 18 20 21 19 16 15 14 14 15 16 16 16 15 14 14 14 14 13 11 11 9 8 7 7 8 8 8 8 8 8 8 8 8 8 8 9 9 9 10 9 8 8 9 9 8 8 8
1 2 2 3 3 3 5 5 4 1 2 3 5 4 4 3 4 4 5 8 7 5 5 4 5 4 6 10 19 24 21 20 20 20 19 16 16 16 16 15 16 16 14 15 17 17 17 17 17 16 17 18 18 17 15 15 15 15 15 15 15 14 13 13 14 14 13 12 11 10 9 8 7 7 7 8 9 8 8 8 8 8 8 7 7 8 8 8 9 8 7 7 8 8 7 7 7
1 2 2 3 3 3 4 3 2 1 2 5 5 1 3 3 3 4 2 5 5 4 4 3 6 8 10 14 20 22 21 21 19 20 20 18 19 18 18 18 17 16 14 15 17 16 15 16 15 15 15 15 16 15 14 15 15 15 14 14 13 12 12 12 12 12 12 11 10 10 9 8 8 8 7 8 8 8 7 7 8 8 8 8 7 7 7 7 7 7 6 7 7 7 6 5 6
2 2 2 3 3 3 3 4 4 2 2 5 5 1 2 2 2 2 3 6 4 3 4 4 5 8 11 14 18 20 21 19 19 21 21 20 19 19 19 19 18 17 15 15 16 14 14 14 13 13 13 15 14 13 13 13 13 14 13 13 13 12 11 11 11 11 11 10 9 9 9 8 8 8 7 8 8 8 6 6 6 7 8 7 7 7 6 6 6 6 5 5 5 5 4 4 4
2 2 2 2 3 4 4 5 6 4 3 3 2 2 2 2 1 2 6 7 3 5 6 6 9 13 14 14 16 19 19 19 20 21 22 21 17 16 17 17 18 17 16 16 15 13 12 13 13 12 13 15 13 11 13 12 12 13 14 14 13 13 12 11 11 10 10 9 8 8 8 8 8 8 7 8 8 7 6 6 6 7 8 8 7 7 6 6 5 5 4 4 3 3 2 2 3
2 2 1 2 4 4 5 2 3 3 3 2 1 3 2 2 1 3 6 5 1 1 5 7 10 16 18 17 16 17 17 18 20 20 21 21 17 16 17 17 17 16 16 16 15 13 13 13 13 14 16 17 15 13 13 11 12 13 14 15 14 13 12 12 11 10 9 8 8 7 7 7 7 7 7 8 8 7 6 6 7 7 8 8 7 6 5 5 4 4 3 3 2 2 1 2 3
3 2 2 3 4 4 4 1 2 3 2 2 1 2 1 1 1 2 4 4 2 3 3 7 11 16 19 18 18 18 18 17 18 20 21 21 19 17 18 19 18 16 15 16 15 14 13 12 11 12 14 17 17 14 13 10 10 13 13 14 13 12 12 12 12 10 9 8 7 7 6 6 5 5 6 7 7 7 6 7 8 7 8 8 7 6 5 5 4 4 3 2 1 1 1 1 2
4 3 2 4 5 6 4 1 2 1 3 3 0 2 3 2 1 2 4 3 5 4 5 10 12 17 18 17 17 17 18 17 18 20 21 21 19 17 17 18 17 16 15 16 15 14 14 12 11 10 10 15 16 14 13 11 10 13 12 11 11 10 10 11 11 10 9 8 7 6 5 5 5 4 5 6 7 7 7 7 8 8 8 8 8 7 6 5 5 4 3 2 1 1 1 1 2
4 4 2 2 4 6 4 3 4 3 5 2 1 4 3 3 2 3 2 2 3 2 8 12 13 16 16 15 16 15 16 17 18 19 18 18 17 16 16 17 18 16 16 16 14 15 15 14 15 15 13 14 14 12 12 12 12 13 11 10 10 9 9 10 10 9 8 7 6 6 6 5 5 5 5 5 5 6 6 7 8 9 8 8 8 7 6 5 5 4 3 2 1 1 0 2 2
4 5 3 3 3 4 3 3 4 3 3 3 3 4 1 1 3 3 1 2 2 5 9 12 13 16 15 14 15 15 14 14 15 17 17 17 17 16 16 18 19 16 15 15 14 15 15 14 15 16 15 12 12 13 13 14 12 12 10 10 9 8 8 10 9 8 7 7 7 6 6 6 6 5 4 4 5 5 5 5 7 9 9 8 8 7 6 6 6 6 4 3 3 2 2 3 3
3 4 3 4 3 3 2 3 2 1 2 5 5 2 2 1 2 2 3 5 6 8 9 11 12 15 15 14 14 13 12 13 14 15 15 16 17 17 17 20 20 15 14 14 13 14 14 14 13 12 12 11 12 14 14 13 10 10 10 9 9 7 7 9 9 8 7 6 6 7 7 9 7 5 4 5 5 5 4 4 6 8 8 8 7 6 6 6 6 6 5 4 4 4 4 5 3
2 3 2 4 4 4 4 4 3 2 3 6 5 1 3 2 2 1 5 8 8 9 10 11 12 13 13 14 14 11 10 12 13 12 12 13 15 14 16 22 22 14 13 16 17 17 15 13 12 12 13 13 12 13 13 11 9 9 9 9 8 7 7 7 8 8 7 7 7 8 8 9 7 5 5 6 6 5 4 4 6 6 6 7 7 6 6 6 6 6 6 5 5 5 5 5 3
1 2 2 2 3 4 5 3 2 2 2 5 6 2 2 4 3 2 7 10 9 10 10 10 12 11 12 13 12 9 8 8 9 9 10 10 8 13 20 24 22 18 17 19 21 20 17 15 14 15 16 15 12 11 10 9 9 9 9 8 7 6 6 6 6 6 7 8 7 7 8 7 7 6 7 7 6 5 5 5 6 7 7 7 6 6 6 6 5 5 5 4 4 5 5 5 3
2 2 2 2 2 3 3 0 1 3 2 5 6 4 4 6 4 6 9 11 11 10 10 11 11 10 10 11 10 7 6 6 6 7 8 5 10 22 26 23 22 25 21 17 16 16 16 15 15 15 14 14 12 11 10 8 8 9 8 8 7 6 5 4 3 4 5 5 5 6 7 6 6 7 8 8 6 6 6 6 7 8 8 8 7 6 5 5 4 3 4 3 4 5 5 4 3
1 2 1 1 2 3 2 1 3 4 2 4 7 5 4 5 4 8 10 12 13 11 11 12 11 11 11 10 9 6 5 5 6 6 5 8 19 25 21 21 24 25 19 13 14 15 15 14 13 13 12 12 11 10 10 8 8 9 8 7 7 6 4 3 2 2 2 2 2 2 3 3 4 4 6 8 7 6 7 7 8 7 7 7 7 6 5 5 4 3 3 4 5 5 4 4 3
1 2 2 0 2 2 2 2 5 5 1 3 7 4 4 4 3 10 11 12 12 10 11 12 12 13 12 10 7 6 4 5 5 5 6 14 24 21 12 18 21 22 18 15 16 17 16 15 13 13 12 11 11 11 10 8 8 8 7 7 6 5 5 4 2 1 1 3 2 2 2 1 3 2 3 6 6 6 6 7 8 6 5 6 6 7 6 4 4 5 5 5 5 5 4 3 3
1 1 2 2 3 2 1 2 4 4 1 3 6 3 2 2 2 10 12 13 12 10 11 12 12 13 12 10 7 6 5 5 6 7 9 17 22 17 15 19 19 20 20 18 20 21 19 18 15 13 13 13 12 11 10 8 8 8 7 6 5 5 5 4 4 4 4 3 2 2 1 1 1 1 1 3 3 4 5 5 6 5 4 5 6 7 5 5 5 7 8 7 5 4 3 2 1
1 1 1 1 2 2 2 2 1 1 2 4 5 4 4 1 1 10 12 13 12 10 10 10 10 10 10 9 8 7 7 7 8 9 11 18 20 17 18 23 22 19 19 20 21 20 18 20 18 14 15 14 12 12 10 8 8 8 7 6 5 6 5 5 6 6 5 3 2 2 1 1 0 1 1 2 1 3 4 4 4 2 3 5 5 5 4 5 6 7 7 7 6 6 5 3 2
4 2 2 1 2 2 3 2 1 2 2 4 5 7 8 1 2 10 12 11 11 9 9 9 9 10 10 9 9 9 8 9 9 9 12 18 19 16 16 22 23 19 18 20 20 17 16 19 17 15 15 14 12 12 10 10 9 8 7 6 6 6 7 7 7 6 6 5 4 3 2 1 1 1 1 1 1 2 3 3 2 2 3 4 4 3 3 4 4 5 6 7 10 9 8 6 4
4 2 1 2 2 3 4 3 1 2 3 6 7 8 9 5 5 10 12 11 10 9 9 8 8 9 9 10 10 9 10 10 8 8 12 16 18 17 17 18 21 20 19 20 21 19 18 18 15 14 15 14 13 13 12 12 10 8 8 8 7 7 8 9 9 8 8 6 6 5 4 3 2 2 2 1 1 1 1 1 0 1 2 2 3 2 2 2 2 4 6 8 11 10 8 7 7
3 2 1 2 2 4 3 2 1 1 4 6 6 8 7 5 6 10 11 11 11 10 10 9 9 9 9 10 11 11 11 9 6 7 11 14 16 17 18 16 16 18 18 18 19 19 19 18 14 14 15 15 15 15 15 12 10 9 10 10 10 10 10 11 11 10 9 8 7 6 6 5 5 5 5 4 3 1 0 0 1 1 1 2 2 2 2 2 2 4 6 8 10 9 8 9 9
2 2 2 2 3 4 2 1 2 1 4 2 2 7 4 1 4 8 10 11 11 11 11 10 10 10 9 10 12 12 10 7 5 6 10 13 14 16 19 17 13 15 16 17 17 17 19 17 14 15 16 16 17 16 14 11 11 12 13 13 13 13 12 12 12 11 10 9 7 6 6 6 5 6 6 6 5 3 2 2 2 2 2 2 1 2 2 2 2 3 6 7 8 8 8 8 9
2 1 1 2 2 3 2 1 3 1 3 2 2 6 1 3 2 6 8 8 7 8 9 8 9 10 10 10 11 11 10 8 6 7 9 12 14 15 17 18 14 14 15 16 16 15 16 17 17 17 17 17 16 15 13 12 13 12 12 13 14 14 13 12 11 11 11 10 8 7 6 6 6 5 6 6 6 5 4 4 3 2 2 2 1 1 2 3 3 4 6 7 6 5 6 6 7
2 2 2 2 1 1 1 1 2 2 1 1 4 4 2 4 2 3 2 1 2 3 6 7 8 10 10 9 9 10 11 10 8 8 8 10 13 13 14 16 16 15 16 16 16 16 15 17 19 18 18 18 17 15 13 13 13 12 12 14 13 12 13 11 10 10 10 8 7 5 4 5 6 5 5 6 6 5 4 4 4 3 2 2 2 1 1 3 4 4 6 6 6 5 5 5 5
2 3 5 3 1 3 2 1 1 1 1 2 5 4 2 2 4 4 1 1 2 3 5 8 8 10 9 9 10 11 11 10 10 9 9 10 11 12 12 14 16 16 17 17 18 17 17 18 20 19 19 19 18 17 15 14 15 15 16 16 14 13 13 11 10 10 8 6 5 4 3 4 5 5 5 5 4 4 3 3 4 4 2 2 2 1 1 2 3 4 4 5 5 4 4 5 5
2 5 9 7 4 3 3 2 1 3 3 2 1 3 3 2 3 6 4 3 3 3 6 9 9 10 10 10 11 11 10 10 10 9 9 9 10 11 11 12 12 11 13 16 17 17 17 19 20 20 20 19 19 18 16 16 16 17 18 17 14 13 12 10 10 10 8 7 6 6 6 6 5 4 4 4 4 4 3 3 4 4 2 2 2 2 1 2 2 3 2 4 4 4 4 4 4
2 4 8 8 5 2 2 2 2 2 2 1 1 1 3 3 2 5 5 7 7 5 7 10 11 11 12 12 11 11 11 11 11 9 8 9 10 10 9 9 8 7 9 14 16 18 19 21 22 22 21 20 20 18 17 16 17 18 16 13 12 12 12 11 10 10 10 9 9 9 8 7 6 5 5 5 4 4 4 4 5 4 4 4 4 4 4 3 3 3 3 3 4 3 4 4 4
2 1 5 8 6 5 4 2 1 0 0 1 1 1 2 3 2 2 2 6 8 6 8 10 10 12 13 13 13 12 12 12 11 9 7 9 10 10 9 7 7 8 12 15 18 20 22 23 23 23 22 22 21 19 17 17 17 17 14 12 12 11 11 12 11 11 11 11 11 11 9 8 7 6 5 5 5 5 5 5 5 5 5 6 7 6 6 6 4 3 3 3 3 3 4 4 3
1 2 4 6 4 3 3 2 2 1 1 3 1 3 1 3 2 2 3 6 8 9 10 10 10 11 11 12 13 13 12 11 11 9 7 7 8 8 7 8 9 11 15 18 20 21 21 22 22 22 21 21 21 19 18 18 17 15 13 12 13 12 11 12 12 12 12 12 11 10 9 8 7 6 5 5 5 6 6 6 5 4 4 5 6 6 6 6 5 4 4 4 4 4 4 4 4
1 5 6 5 4 3 2 1 2 1 2 3 2 4 1 3 1 2 3 4 5 6 6 7 8 9 10 10 10 10 9 9 9 8 6 6 7 7 7 9 11 14 17 18 19 19 18 19 20 21 21 21 21 19 18 17 16 14 13 12 13 13 13 13 14 13 12 11 10 9 8 7 7 6 6 6 6 6 5 4 3 2 2 3 4 5 5 6 6 7 7 6 6 5 4 4 5
4 5 5 5 3 2 1 2 2 1 2 1 2 5 2 3 1 1 2 2 0 3 3 3 4 7 9 9 8 8 8 7 7 6 5 5 7 8 9 10 11 14 17 17 16 15 14 16 18 19 19 20 20 19 18 17 15 14 12 10 11 12 13 14 15 15 13 11 10 10 8 8 7 7 7 7 6 5 4 3 2 2 2 2 3 3 4 5 8 10 11 10 9 8 7 7 7
4 2 3 3 1 1 1 1 0 3 3 1 2 3 2 3 2 1 2 1 2 4 5 4 5 6 7 7 7 7 6 6 7 6 6 6 8 10 11 11 13 14 15 16 15 11 10 13 16 16 16 18 19 18 17 16 15 14 12 10 9 10 11 12 14 15 14 12 12 11 10 9 8 8 8 7 6 5 4 4 3 3 3 3 2 3 5 7 8 10 11 11 10 10 10 11 11
2 2 3 3 1 1 2 1 2 3 1 1 2 1 1 1 1 2 4 5 5 5 5 7 8 6 5 5 6 4 5 6 6 6 5 5 6 8 9 11 12 14 17 18 13 13 17 17 12 12 14 15 17 17 17 17 16 14 12 11 10 10 10 10 12 13 13 12 12 12 11 10 9 8 8 7 6 5 5 5 5 4 4 3 3 4 6 7 7 8 8 8 8 9 10 11 12
4 4 3 4 3 2 3 1 1 2 1 1 1 2 1 1 1 2 5 6 7 6 5 6 7 5 2 2 5 6 6 6 6 6 6 5 5 4 5 8 8 10 15 15 14 24 24 16 10 10 11 12 15 17 17 17 16 15 14 13 12 11 11 11 11 12 13 12 12 12 12 11 9 8 7 6 6 5 5 6 6 5 5 5 5 5 5 5 6 6 6 7 8 9 9 10 11
3 1 2 4 4 2 3 3 2 3 1 2 1 1 2 2 1 3 5 5 5 5 4 2 1 1 4 6 8 8 8 8 8 9 9 8 9 8 3 4 8 11 10 7 22 29 22 15 12 8 7 11 15 16 17 16 16 15 15 14 14 13 12 12 12 12 12 12 12 12 11 11 9 8 6 5 5 5 5 6 7 7 7 7 6 5 4 4 4 4 5 6 8 8 8 9 9
1 0 2 2 3 3 1 0 1 1 1 2 2 1 1 0 1 4 4 3 5 4 3 3 5 7 8 9 9 9 9 9 8 8 8 8 11 11 2 9 10 11 4 14 26 24 18 18 17 12 12 14 15 15 16 16 16 16 15 16 16 14 13 12 13 13 12 11 11 11 11 10 8 7 6 5 5 4 4 6 7 7 8 9 8 7 6 4 3 4 5 6 7 8 8 8 9
3 2 3 1 0 3 3 2 2 1 2 2 1 1 1 1 1 2 1 2 4 3 3 4 6 8 9 9 8 9 10 10 9 8 6 3 7 15 9 12 15 7 12 27 27 17 17 22 25 23 19 17 16 17 18 18 17 16 16 16 16 15 14 13 13 14 13 12 11 10 10 10 9 7 6 5 5 4 4 5 5 6 7 8 9 9 8 6 5 5 6 6 7 7 7 8 9
3 3 5 3 2 2 2 2 2 0 3 2 1 1 1 3 2 3 5 5 5 4 3 4 5 7 8 7 7 8 8 8 8 7 7 2 1 11 11 13 13 3 18 33 30 18 18 24 27 26 20 19 22 21 20 19 18 16 16 17 17 16 15 13 12 13 13 13 13 12 11 10 9 7 5 5 4 4 4 4 3 4 4 6 7 8 8 7 7 6 6 6 6 6 7 8 8
1 2 5 3 2 2 2 2 2 3 3 1 1 0 2 4 1 1 5 6 7 6 4 5 5 4 5 5 5 6 5 6 7 5 5 2 1 5 7 5 3 5 15 29 32 24 22 25 26 25 21 22 25 23 21 20 19 18 17 18 17 16 16 15 12 13 14 15 15 14 12 11 9 8 6 5 4 4 4 3 2 2 3 4 5 6 7 7 7 6 6 6 5 5 6 7 8
3 3 3 1 1 2 2 1 2 4 4 2 2 2 3 3 1 2 1 3 6 7 5 4 4 3 3 3 4 4 4 4 5 4 4 2 3 6 8 6 5 8 13 22 27 24 22 22 22 24 23 22 23 23 21 20 19 17 17 17 17 17 17 16 14 14 15 16 15 12 11 11 10 9 7 6 5 5 4 3 3 2 2 3 3 4 5 5 5 5 5 4 4 3 4 5 7
3 4 3 1 1 1 1 1 1 1 3 3 3 3 2 1 2 4 4 3 2 5 5 3 2 3 3 3 1 2 4 3 3 4 4 2 4 9 12 9 7 9 12 16 20 22 21 19 19 22 24 22 21 20 19 19 17 15 15 16 17 17 19 18 16 16 15 15 14 11 10 10 10 9 8 8 6 6 5 4 3 2 2 2 1 2 2 3 3 4 3 3 3 2 2 2 3
2 3 3 3 3 3 4 3 1 0 1 2 3 3 2 2 2 5 5 3 2 2 5 5 4 4 5 3 1 3 5 4 3 4 4 4 6 9 10 9 7 9 11 13 16 20 22 20 19 21 22 23 21 17 16 16 14 12 13 15 16 17 19 19 19 17 15 14 14 13 11 10 10 9 8 8 7 6 5 4 3 1 1 1 1 1 1 0 1 2 3 3 3 2 1 1 1
Wind_Direction
145 134 138 149 142 143 146 216 206 124 258 246 244 257 185 210 297 278 293 294 186 62 339 44 91 130 121 104 135 101 49 133 138 130 132 94 134 146 148 149 151 147 147 150 153 158 156 155 151 147 143 139 140 140 140 140 140 140 141 142 144 144 143 142 141 142 140 139 137 134 132 130 130 128 127 123 119 115 118 122 122 120 119 118 117 119 120 122 123 124 126 126 125 125 125 124 122
153 144 149 147 139 155 147 297 235 136 214 242 233 192 96 196 195 313 327 344 119 113 79 76 75 68 52 69 97 88 58 37 54 78 85 120 133 140 146 147 148 146 146 149 152 154 155 156 152 148 145 142 141 140 139 138 138 139 140 141 142 143 143 142 141 141 139 138 136 134 133 131 130 130 129 128 125 120 118 119 119 118 119 118 117 118 120 122 122 125 126 127 127 128 131 130 127
163 153 154 146 122 195 124 124 250 162 194 229 230 160 138 181 128 44 47 130 143 136 130 98 71 44 17 72 53 23 69 65 90 93 109 134 134 139 147 147 147 145 144 149 152 152 153 156 154 150 147 145 142 141 140 138 138 138 139 139 141 142 142 142 140 138 137 137 135 134 133 133 133 133 133 131 129 125 122 121 119 117 121 121 119 119 120 121 123 125 126 128 130 131 135 134 129
167 154 160 158 121 244 148 180 221 178 200 220 253 157 183 159 126 103 123 149 162 155 63 122 84 24 10 77 51 29 92 97 102 107 128 137 135 140 146 147 145 143 145 148 149 150 153 157 156 152 149 147 144 142 139 139 140 140 140 140 142 142 141 140 139 137 136 136 135 134 134 135 135 134 134 132 129 127 126 123 120 118 118 121 122 122 122 123 125 128 128 131 133 132 137 136 132
169 153 168 189 183 162 149 159 126 210 207 192 30 134 187 169 155 187 140 202 216 198 100 128 114 77 61 61 34 56 89 102 106 122 130 127 134 139 143 146 144 143 145 148 148 147 154 159 156 153 150 146 144 142 140 140 140 140 141 140 142 142 140 140 140 138 138 138 136 135 135 135 133 133 133 133 131 129 127 124 123 120 118 122 123 123 125 125 129 132 131 133 135 135 139 140 138
162 148 151 180 120 109 158 182 189 220 219 169 152 129 187 203 279 287 269 291 267 178 140 120 121 118 95 52 58 49 24 124 125 134 135 132 138 140 141 144 143 143 145 147 147 146 154 159 155 151 148 146 144 141 140 141 141 142 141 140 141 141 141 142 142 141 141 141 139 138 137 136 135 134 135 134 133 130 128 126 126 125 123 122 120 121 124 124 129 134 135 137 138 140 142 144 147
161 152 117 141 108 341 201 214 217 226 207 171 219 179 210 233 264 280 288 297 184 157 125 124 130 118 100 91 117 52 351 256 144 136 136 137 139 141 141 142 142 141 144 145 144 146 155 158 154 149 145 144 144 142 141 142 142 143 141 140 140 141 142 144 146 145 145 144 144 143 141 140 138 137 137 135 133 130 129 130 131 132 126 121 120 118 120 123 128 136 140 141 141 144 146 147 152
162 153 341 173 140 345 209 237 238 226 217 206 253 263 260 258 235 267 280 247 190 155 129 139 139 113 106 160 137 56 21 91 127 126 129 134 138 141 143 144 142 140 143 143 143 147 154 156 152 149 145 142 143 144 144 143 143 143 141 139 141 143 144 146 148 149 148 148 148 147 145 143 140 139 138 136 135 134 135 136 137 136 127 122 123 120 121 125 131 137 141 142 142 146 150 152 158
131 76 208 194 157 179 224 252 248 221 264 266 265 251 259 255 237 254 249 234 208 157 139 150 156 117 135 134 111 60 47 110 122 123 128 134 139 142 144 148 143 141 142 143 145 149 153 153 153 153 150 147 146 148 148 145 143 142 141 139 141 145 146 148 150 150 151 151 150 149 146 143 141 140 139 139 141 143 141 139 141 138 129 123 122 121 125 129 133 136 138 143 146 151 158 162 165
89 8 165 152 158 201 233 237 245 219 250 272 279 266 270 242 229 237 239 236 184 154 133 145 133 130 136 123 107 67 108 134 125 122 131 138 144 145 145 148 144 140 142 145 147 150 153 153 156 158 155 153 152 152 150 147 145 142 140 140 142 146 148 149 150 151 151 151 151 150 147 144 143 143 143 144 145 147 143 140 142 140 134 127 124 120 124 129 134 137 138 145 154 164 171 170 170
133 44 147 167 180 208 229 226 238 261 264 289 285 271 283 240 218 226 229 210 168 147 137 143 125 127 124 115 112 80 139 143 128 128 140 143 146 146 144 145 143 141 143 147 149 151 153 155 157 159 159 157 154 153 153 152 148 144 142 142 145 149 149 149 150 151 151 151 152 151 148 146 146 146 146 145 144 145 143 141 141 140 140 135 128 121 124 131 137 144 147 152 156 162 167 167 162
174 131 175 193 203 210 224 247 246 281 282 301 321 334 341 248 202 216 208 177 157 143 145 163 143 132 119 123 125 123 143 142 133 136 144 146 145 145 144 144 144 144 145 148 149 151 154 156 157 160 162 159 155 154 155 156 152 147 145 145 149 153 152 151 151 151 152 152 152 152 149 149 146 145 144 140 138 140 141 140 139 139 142 140 128 121 125 133 140 150 158 162 163 161 159 156 152
187 150 170 180 232 180 154 232 256 289 285 105 355 338 341 356 74 206 176 149 146 144 143 161 151 131 112 126 117 143 149 143 141 141 145 146 146 146 144 144 145 146 148 150 151 153 156 158 157 160 164 161 157 157 158 159 154 149 147 149 153 154 151 149 150 152 153 152 153 152 149 147 144 143 139 134 134 135 138 139 141 138 137 135 125 122 127 130 135 142 150 157 162 161 155 150 148
194 169 184 184 70 147 162 197 248 237 162 93 22 324 335 26 16 119 137 132 130 129 116 123 140 112 112 131 141 173 157 149 146 142 147 146 146 148 145 146 146 149 151 153 154 154 157 159 158 159 164 164 162 161 160 158 152 149 149 152 154 152 148 147 149 152 153 153 153 150 145 142 139 137 133 131 131 131 130 132 139 138 135 131 125 125 128 129 129 128 130 137 146 150 150 150 147
188 145 155 170 124 173 200 221 248 185 133 74 34 330 19 37 3 101 94 117 105 62 107 109 82 59 151 159 184 186 154 149 149 142 147 146 147 148 146 149 149 151 153 154 155 155 157 159 159 160 163 165 163 161 157 155 154 153 152 153 153 149 146 147 149 151 154 155 152 147 142 137 134 132 129 128 128 128 120 117 128 135 138 137 130 129 130 133 130 123 119 124 132 136 140 143 143
148 127 133 182 176 188 193 198 211 160 141 127 13 340 62 50 11 62 5 75 116 65 66 93 346 346 170 173 168 160 147 148 149 144 146 143 144 145 145 150 149 151 152 155 155 155 157 158 160 161 163 165 164 162 156 156 158 156 155 154 152 148 147 148 149 151 153 152 149 146 141 136 133 130 130 128 126 126 122 121 128 134 141 142 135 131 134 139 136 127 119 120 125 128 134 137 139
134 174 185 195 201 192 185 193 186 145 50 299 6 3 37 51 46 84 50 73 108 85 41 60 358 346 165 138 133 140 143 151 150 147 147 142 143 145 147 149 150 153 153 156 156 156 158 158 160 160 161 163 164 162 157 156 159 159 159 155 152 149 149 150 149 152 152 151 150 148 144 141 141 137 134 133 129 128 130 134 134 134 137 142 140 135 137 145 145 139 126 124 126 126 131 136 138
175 183 205 213 188 174 187 195 184 164 347 344 352 14 31 44 114 132 90 74 87 88 62 63 52 62 94 108 126 133 144 154 154 153 151 150 152 152 153 155 155 155 153 156 156 156 158 160 160 159 159 160 160 160 158 159 160 161 159 155 152 151 150 149 151 153 154 156 159 157 156 155 152 145 142 141 137 136 144 146 142 140 142 144 145 141 141 148 152 149 140 135 133 130 131 136 140
182 152 218 214 179 184 197 200 186 204 318 331 333 28 30 350 146 164 161 116 116 100 74 76 83 91 106 123 132 137 149 157 160 161 160 163 165 163 160 161 159 155 154 157 156 156 159 159 158 157 156 153 155 159 161 162 160 159 158 153 151 152 152 154 157 160 163 167 169 167 167 166 158 147 143 143 143 146 154 156 151 153 153 149 150 152 148 149 152 152 151 146 140 135 131 130 138
182 182 228 205 199 239 210 209 226 226 295 318 327 344 6 340 180 199 162 143 166 169 146 149 146 139 134 139 140 143 153 161 167 170 171 173 171 168 164 163 162 156 155 156 154 154 156 155 152 151 146 148 157 163 162 159 159 159 156 153 153 156 159 165 171 170 171 175 178 176 169 166 158 146 142 145 147 152 159 159 161 167 164 158 158 160 158 152 148 150 157 157 150 141 130 121 126
164 202 222 159 171 248 229 205 226 228 242 282 325 323 353 65 160 214 156 151 208 218 194 187 175 163 152 150 150 151 158 167 175 177 178 178 172 169 167 163 160 155 153 153 150 149 153 151 146 143 142 152 163 167 164 163 166 163 158 158 161 165 167 173 181 175 171 176 179 177 168 167 162 151 152 154 150 154 163 164 173 181 174 172 169 165 169 163 152 154 161 169 171 158 140 125 124
165 201 196 139 151 240 266 223 212 205 199 223 320 327 344 97 165 186 171 179 213 220 213 202 175 166 162 158 155 159 167 174 180 182 181 181 175 167 165 160 155 152 151 149 147 151 156 153 151 153 154 157 165 172 175 176 176 173 167 167 169 172 175 178 185 179 174 180 179 180 177 173 168 159 158 159 156 157 168 172 177 183 178 179 175 169 178 173 163 165 168 185 201 202 198 150 144
208 202 173 200 185 232 270 290 191 171 193 244 284 327 344 125 136 173 206 239 308 330 233 191 173 170 166 159 159 167 174 180 185 187 185 183 178 170 167 161 153 149 148 148 152 157 153 148 153 157 156 158 164 172 179 184 182 182 177 175 175 177 182 185 188 186 184 188 183 186 189 183 179 172 162 160 161 161 173 181 179 178 179 179 175 173 178 174 171 172 180 200 235 249 242 188 163
229 211 203 213 199 228 241 247 242 189 243 256 332 303 271 226 180 175 209 278 319 310 182 166 164 167 166 163 166 172 176 183 189 190 190 187 182 172 165 157 148 144 143 149 160 156 145 145 151 151 157 167 169 166 176 192 193 187 182 179 183 183 185 189 191 190 189 190 185 188 195 196 195 189 178 169 164 164 177 183 178 177 180 180 178 175 175 175 175 177 189 205 240 268 267 195 178
223 214 211 188 197 235 243 261 266 250 251 240 209 260 256 209 188 182 185 355 350 96 143 150 157 164 168 170 172 175 179 185 188 189 192 192 184 168 159 148 140 142 147 155 161 152 149 158 160 163 175 179 171 163 178 201 202 190 184 184 188 187 189 193 195 195 193 192 191 195 200 209 212 207 200 189 176 179 188 185 180 180 180 182 182 178 177 179 180 185 190 190 203 216 216 188 175
210 203 204 208 236 267 262 264 261 258 251 176 206 249 268 157 186 186 124 76 125 130 140 148 157 167 172 175 177 179 181 183 184 188 191 191 182 164 153 141 137 147 155 157 156 156 163 170 166 170 182 183 172 171 188 206 204 189 187 193 193 192 196 195 195 199 199 199 200 200 208 218 221 217 212 211 200 202 205 194 188 185 183 183 180 182 184 181 181 184 183 185 195 199 199 191 176
172 182 216 236 275 305 277 270 261 297 248 191 214 271 40 47 219 203 126 137 153 143 148 156 164 173 176 181 184 183 182 182 182 184 183 185 181 165 144 133 139 153 154 155 161 171 183 179 172 174 183 190 184 185 195 204 201 187 192 199 196 198 201 194 195 201 204 208 206 205 217 224 224 223 223 226 218 217 217 202 194 190 186 182 180 187 187 182 183 185 186 188 189 187 191 191 180
150 165 241 255 294 282 240 272 267 251 240 191 197 157 79 115 227 234 135 149 161 153 156 166 172 175 180 186 187 183 181 181 178 181 181 180 177 159 129 125 136 143 149 168 181 188 195 187 178 180 190 199 195 191 195 200 195 188 193 197 198 205 203 195 196 203 208 212 208 209 226 234 236 232 225 223 214 213 221 211 199 193 188 183 181 185 183 183 187 189 188 183 180 180 185 192 184
127 137 265 276 329 265 217 261 258 203 222 164 164 169 146 177 185 128 143 155 160 160 162 170 175 179 184 186 187 181 175 172 172 189 191 178 148 109 107 121 140 159 169 183 188 188 197 197 190 189 198 204 198 195 196 196 193 190 194 197 199 201 199 195 197 209 218 221 217 228 245 246 247 243 233 229 215 201 205 215 211 200 197 193 187 186 188 190 191 197 196 188 182 177 181 191 181
149 120 279 291 316 249 197 166 138 182 204 156 176 226 215 202 178 140 155 163 160 161 168 175 179 184 184 182 184 177 167 171 178 197 188 154 97 99 114 134 161 178 181 187 186 185 195 200 200 198 201 205 202 201 199 195 194 195 198 197 194 195 196 191 194 225 244 252 249 254 257 249 253 250 236 231 223 203 197 215 224 212 206 205 199 194 195 196 194 203 203 201 196 182 182 189 180
131 134 162 311 239 206 180 150 156 182 184 160 198 236 228 220 181 157 165 169 167 167 172 179 183 188 188 182 182 176 174 187 191 187 148 97 97 106 132 159 168 177 179 181 181 186 194 194 198 199 200 204 206 205 198 194 194 196 196 190 191 190 182 169 173 244 275 315 306 292 289 273 275 270 237 225 223 214 200 214 229 225 218 211 203 197 196 199 194 193 199 203 199 188 182 185 184
61 187 178 179 219 222 282 205 194 209 96 156 206 229 237 247 167 159 169 176 177 176 176 182 188 190 191 184 179 179 182 193 194 172 120 99 105 111 155 176 172 179 182 179 180 187 194 195 193 191 194 198 202 203 198 195 193 195 192 184 182 162 146 148 147 149 70 33 38 25 2 274 273 296 259 231 222 223 215 220 231 231 219 203 198 200 201 198 191 195 202 198 192 190 186 185 197
59 247 197 170 198 228 298 175 214 249 88 169 216 237 228 271 162 162 169 179 181 182 181 186 192 191 193 190 183 184 184 190 201 185 131 107 114 132 175 186 185 186 184 183 183 187 192 195 193 187 191 194 197 203 200 195 191 192 185 167 151 131 125 118 103 102 90 71 66 49 52 140 223 22 305 264 238 235 232 232 238 230 210 202 200 204 206 201 204 206 204 197 188 186 186 183 205
175 238 192 189 204 213 245 171 170 261 182 198 214 226 220 357 138 171 172 181 182 185 185 186 193 193 195 196 193 192 197 202 205 193 147 123 133 160 180 188 191 183 185 189 186 188 191 192 191 186 190 191 194 199 195 191 190 186 171 148 134 125 115 104 97 100 106 106 102 93 88 82 49 75 346 302 274 252 250 249 252 230 208 212 208 209 213 210 213 209 199 192 178 174 189 194 211
178 186 180 197 213 216 254 255 141 134 207 211 185 216 230 249 147 176 174 182 186 188 186 184 191 195 198 202 203 201 205 212 208 190 156 138 150 178 192 192 190 181 185 194 192 191 192 191 187 182 186 186 191 194 187 188 187 177 160 143 136 128 117 112 110 111 113 112 112 105 87 60 13 46 22 293 244 255 262 264 264 223 210 211 206 213 221 211 209 202 188 180 178 185 200 195 187
153 156 172 195 223 236 252 265 244 156 220 219 194 213 222 192 171 180 177 183 192 193 188 189 190 192 200 205 207 208 210 215 208 179 158 148 158 186 204 198 192 189 189 195 197 194 193 193 184 177 181 184 190 189 184 184 177 166 160 151 143 134 126 120 116 117 114 110 104 89 77 72 59 75 98 102 109 249 254 246 179 180 199 201 206 221 223 218 210 192 174 177 186 190 196 188 180
126 132 180 221 242 257 254 244 312 189 218 226 206 217 222 188 180 183 180 183 192 196 193 196 195 194 202 205 207 211 213 213 197 158 151 155 165 188 206 202 192 195 195 195 198 196 193 193 183 175 181 188 193 187 182 180 169 164 165 160 151 137 130 124 120 117 113 110 101 88 83 80 73 83 95 97 98 80 325 82 109 119 136 154 198 212 198 203 197 179 168 181 194 186 181 187 184
123 169 229 248 224 253 268 160 2 255 214 235 188 211 221 165 187 184 183 191 198 202 200 199 199 202 207 209 211 212 212 210 185 151 149 160 170 186 205 210 193 187 196 199 201 200 196 192 188 186 187 192 196 189 182 180 176 173 168 160 150 137 130 126 123 119 115 112 106 97 93 86 84 87 92 97 96 83 54 42 62 91 108 121 180 206 174 167 156 158 163 183 198 188 185 192 185
129 165 241 245 213 258 277 132 13 34 212 250 169 193 167 51 176 183 190 203 204 204 207 204 202 209 215 213 215 216 213 213 198 172 163 168 175 183 199 210 201 188 196 201 200 201 197 195 197 198 195 196 198 191 183 184 182 179 167 154 145 135 130 126 121 118 115 113 105 99 95 91 88 89 94 93 86 76 58 36 36 65 102 125 175 205 142 141 141 149 164 184 202 194 190 197 188
180 175 222 228 189 248 204 122 29 42 278 245 146 151 68 68 138 175 191 206 153 166 191 200 206 217 222 218 219 219 217 219 211 190 178 175 178 183 194 204 200 192 192 194 196 197 196 196 199 201 200 198 198 190 183 187 184 175 159 146 139 132 129 126 120 116 115 112 104 96 93 94 92 92 95 88 76 63 49 30 23 35 69 117 152 158 116 128 137 147 163 186 212 210 192 197 196
216 213 221 229 209 226 242 0 347 170 65 71 123 130 89 98 171 192 151 70 106 128 177 194 212 227 227 221 222 222 222 223 219 207 193 183 181 185 193 197 194 191 189 188 192 194 193 196 198 200 200 199 197 188 185 190 181 165 150 139 133 127 126 128 125 122 122 116 107 99 99 105 100 93 86 82 72 47 30 15 8 22 55 97 127 130 125 131 134 147 166 183 204 213 198 193 196
233 219 217 223 213 216 260 319 239 181 125 71 113 165 145 96 192 193 178 191 179 160 202 209 213 225 226 222 224 223 224 225 224 216 195 186 186 188 192 192 189 184 184 186 190 192 192 194 196 199 201 200 196 189 188 190 180 166 154 143 136 130 126 127 127 127 128 122 114 112 110 111 107 96 88 81 62 33 25 14 10 29 63 75 74 63 76 93 102 126 162 179 186 205 204 200 196
232 215 205 208 205 208 243 239 208 191 126 91 308 220 155 118 170 187 181 199 196 181 209 217 215 221 223 222 223 221 222 225 225 214 191 187 189 189 189 185 174 161 169 184 189 192 195 197 198 199 201 201 194 188 189 188 180 173 163 145 135 134 131 132 133 129 126 123 119 117 114 110 106 100 96 86 69 53 45 34 28 48 73 77 76 77 80 82 91 108 126 154 170 186 188 194 194
206 174 167 173 187 202 205 199 180 190 59 138 346 327 163 131 135 186 184 192 200 204 209 213 214 218 222 221 219 219 220 220 221 213 194 192 191 188 180 160 150 158 170 182 190 195 198 198 197 196 197 198 191 187 189 188 183 179 168 143 132 134 134 137 139 133 128 126 122 120 118 113 107 100 96 92 88 79 63 51 48 61 80 85 83 82 79 77 82 100 114 130 144 148 153 162 172
273 124 135 144 159 174 171 162 113 60 235 179 67 356 192 146 109 162 179 188 205 217 216 213 212 215 219 219 215 215 215 215 219 215 198 192 189 180 159 141 152 173 182 190 197 199 194 189 189 189 190 190 184 183 186 186 186 184 170 148 139 139 138 140 144 140 134 131 127 124 122 118 111 101 96 99 98 86 73 65 60 65 80 83 79 75 72 68 68 84 101 110 121 127 131 132 137
151 133 106 96 94 83 93 131 111 91 232 190 36 349 221 166 107 134 168 184 204 221 225 222 218 217 218 219 213 204 202 206 210 210 201 187 174 157 142 143 159 180 193 201 202 194 183 179 178 176 177 178 177 179 185 186 188 187 175 156 147 146 146 146 147 145 141 137 131 127 127 121 115 109 102 104 103 90 77 68 65 70 72 75 74 67 63 65 73 87 96 98 104 109 110 112 112
150 143 102 95 80 56 60 40 70 172 214 177 6 338 282 186 175 186 175 153 288 279 265 256 248 236 225 222 216 200 193 189 187 189 183 166 148 142 147 150 164 186 198 204 200 186 174 168 160 156 161 169 174 181 188 188 190 192 183 166 155 153 154 154 152 150 147 144 139 133 129 123 119 119 116 113 111 98 81 68 77 95 87 82 68 48 59 81 91 95 95 92 91 91 94 105 109
157 147 121 134 74 37 114 40 139 198 189 88 0 329 275 207 178 232 271 338 345 299 282 289 281 258 238 227 214 200 185 172 171 174 169 159 143 143 153 157 169 187 197 203 196 169 136 132 137 143 154 168 178 185 190 190 192 194 188 178 170 165 163 161 158 156 152 149 146 139 132 127 126 126 125 122 116 98 75 70 83 97 100 88 46 53 84 100 103 100 96 92 88 87 90 100 108
169 133 143 170 162 169 202 202 202 212 190 59 339 309 236 241 279 296 299 328 343 314 289 282 277 272 262 230 201 180 164 160 162 159 151 146 142 148 159 167 177 185 193 200 181 117 97 102 126 158 163 170 180 186 192 193 194 195 192 191 187 179 172 166 161 155 151 150 148 141 136 133 134 133 130 124 110 89 73 79 88 92 94 78 63 89 104 108 106 102 96 92 92 93 96 102 109
185 160 163 180 158 161 200 185 219 246 199 81 328 288 198 210 305 279 296 327 342 330 304 282 275 278 282 168 150 135 132 131 124 114 101 89 86 102 150 173 192 198 198 192 136 104 104 119 160 182 166 173 188 193 197 197 198 200 198 198 196 188 178 168 161 152 147 149 146 140 134 132 137 141 138 127 107 85 77 85 87 85 85 78 77 94 108 109 107 101 95 96 100 102 103 106 109
180 152 159 180 170 181 209 201 200 207 145 96 163 214 184 157 72 320 312 336 357 355 343 329 321 98 105 109 114 115 117 115 113 110 105 100 83 60 38 218 209 209 215 150 110 107 117 153 189 196 186 201 206 202 202 200 202 204 202 203 201 195 186 171 159 149 146 148 147 141 132 125 130 138 142 137 114 90 81 84 80 74 73 71 71 79 96 108 107 98 97 103 105 105 105 106 107
130 63 151 186 187 154 142 178 154 169 133 124 173 215 268 213 327 317 320 4 26 25 25 76 98 106 108 107 110 113 117 119 121 121 119 119 113 102 44 283 243 217 186 96 104 113 136 172 197 216 229 231 221 211 211 210 209 208 207 208 206 201 195 177 160 152 149 148 149 146 134 121 119 125 136 142 129 105 90 87 79 69 65 63 63 66 75 91 103 100 104 108 105 101 101 102 105
132 173 178 177 75 115 117 120 55 12 206 171 148 194 196 212 226 224 193 78 63 56 72 101 112 121 119 119 129 133 136 139 138 135 121 112 126 124 146 251 251 220 114 109 115 129 158 182 200 207 217 231 226 220 219 216 214 214 213 213 210 208 204 189 168 158 152 148 148 148 142 128 114 112 127 139 145 132 112 101 89 76 68 64 64 65 67 75 89 101 106 105 102 95 91 95 104
144 180 165 135 77 80 111 156 91 128 212 178 110 160 177 196 178 158 171 153 124 118 116 120 132 136 128 126 132 129 130 130 128 127 117 107 160 126 149 224 239 166 114 123 130 147 178 196 200 193 202 223 223 221 221 218 219 222 219 215 211 210 208 199 179 162 156 155 154 154 158 145 120 114 126 134 151 155 137 125 108 89 79 71 68 66 65 68 76 89 101 102 99 93 84 87 100
29 148 135 133 188 166 156 166 151 182 202 169 144 188 238 211 185 150 179 155 130 130 132 135 131 113 103 96 96 100 97 95 96 96 96 99 259 117 133 203 213 104 121 135 143 157 185 198 192 184 198 216 218 219 221 221 223 224 219 214 211 210 208 203 188 169 164 169 170 165 165 155 129 123 130 133 151 165 162 156 142 119 99 84 73 67 64 62 62 68 84 94 95 92 86 89 98
54 117 116 44 283 178 171 154 168 189 190 165 159 191 226 206 328 308 228 112 125 144 144 138 116 77 68 69 72 88 94 93 96 85 68 41 359 43 67 75 102 121 131 144 155 165 181 189 186 189 201 211 217 221 222 221 220 218 214 212 212 209 205 202 193 182 176 178 182 176 166 154 137 137 143 145 158 168 170 172 165 162 138 108 89 71 62 55 54 56 64 75 79 81 90 97 103
127 153 153 138 79 100 177 111 41 195 175 163 173 192 203 109 5 300 312 25 130 158 146 128 96 75 64 53 35 87 89 71 71 81 76 63 36 46 61 75 109 133 137 152 168 175 181 185 187 194 203 212 219 221 220 219 217 211 209 210 212 208 205 202 196 193 188 184 191 193 176 157 146 149 156 156 163 172 178 181 172 167 160 142 127 91 67 50 42 36 36 45 51 61 89 109 117
180 180 173 156 132 145 171 164 141 328 161 168 181 186 163 62 359 301 306 320 289 199 146 124 101 97 87 74 81 94 90 76 60 69 63 53 51 60 77 94 115 135 147 161 173 181 186 186 186 193 206 217 221 221 219 219 216 210 206 209 212 208 205 202 198 197 195 194 202 206 192 168 158 163 170 167 164 174 187 197 194 180 175 184 191 191 179 75 18 357 353 351 350 346 297 266 203
Height
777 778 778 779 779 780 782 782 789 794 793 797 794 789 785 782 781 779 777 772 773 773 768 767 766 766 768 769 769 769 772 773 777 787 785 776 774 776 777 779 781 784 787 790 792 794 795 797 798 800 801 802 804 805 807 808 809 810 812 814 816 818 819 820 821 822 823 823 824 825 826 826 827 828 829 829 830 831 831 832 832 833 833 834 835 835 836 836 837 837 838 839 840 840 841 841 841
777 777 778 779 779 780 783 783 793 799 796 799 792 787 784 780 781 777 775 774 773 771 767 766 765 767 767 765 766 770 773 772 771 775 775 774 776 777 779 781 783 785 787 791 793 794 796 797 799 800 801 803 804 805 807 808 810 811 812 814 816 818 820 821 822 823 824 824 825 826 826 827 828 829 829 830 831 831 832 832 833 833 834 835 835 836 836 837 837 838 839 839 840 840 841 841 841
776 777 777 778 779 780 784 785 795 802 800 797 785 784 784 779 778 776 774 772 770 767 767 766 766 769 769 770 771 774 776 773 771 773 775 775 776 778 781 783 784 786 788 791 793 795 797 798 800 801 802 803 804 805 807 809 810 812 813 815 817 819 820 822 823 824 825 825 826 826 827 828 829 829 830 831 832 832 832 833 833 834 834 835 836 836 837 837 838 838 839 840 841 841 841 842 842
776 777 777 777 780 782 786 789 795 799 797 794 784 782 782 776 776 774 771 768 767 766 766 767 770 771 770 776 776 775 777 773 772 773 775 776 777 779 781 784 785 787 789 791 793 796 797 799 801 802 803 804 805 806 807 809 810 812 813 815 817 819 821 822 824 824 825 826 827 827 828 829 829 830 830 831 832 833 833 833 834 834 835 836 836 837 837 837 838 839 840 841 841 842 842 842 843
776 777 778 776 781 782 787 795 800 797 788 787 783 781 779 773 773 772 770 767 765 766 766 767 771 772 771 775 775 777 777 774 774 773 775 777 778 780 781 784 785 787 790 792 794 796 797 799 801 802 803 804 806 807 808 810 811 813 813 814 817 820 821 823 824 825 826 827 827 828 829 829 830 830 831 831 832 833 834 834 834 835 835 836 837 837 837 838 838 839 840 841 842 842 843 843 843
776 777 778 777 781 781 787 796 799 793 779 779 779 777 777 772 772 771 769 766 764 765 764 766 769 771 775 775 773 776 776 775 775 774 775 777 779 781 782 784 786 788 790 792 794 795 798 799 801 803 804 806 807 808 810 811 812 813 814 814 817 819 821 823 824 825 826 827 828 828 829 830 831 831 831 832 832 833 834 834 835 835 836 837 837 838 838 838 839 839 840 841 842 842 843 843 844
775 776 778 779 782 782 789 793 790 787 777 778 778 775 775 773 773 770 769 768 766 765 763 766 765 769 778 776 774 775 775 774 773 774 776 777 780 781 783 785 787 789 790 792 794 796 798 800 802 804 805 807 808 810 811 812 813 814 815 815 816 819 821 823 825 826 826 827 828 829 830 830 831 831 832 832 833 834 835 835 836 836 837 837 838 838 839 839 840 840 841 841 842 842 843 844 844
774 777 780 781 787 789 792 793 787 786 780 777 777 774 773 771 771 770 770 769 768 767 766 766 763 771 780 774 776 777 774 775 774 776 777 778 781 782 784 786 787 789 791 792 794 797 799 801 803 804 805 807 809 811 812 813 814 815 817 816 817 819 821 823 825 826 827 828 829 830 830 831 831 832 832 832 833 834 835 836 836 837 838 838 839 839 840 840 840 841 841 842 842 843 843 844 844
774 777 781 783 789 793 793 793 787 787 783 776 774 772 769 769 769 769 769 768 768 767 767 766 763 771 779 775 778 777 775 777 775 777 778 780 781 783 785 786 788 789 791 793 795 797 799 801 802 804 805 806 809 811 813 813 815 816 817 818 818 820 821 823 825 826 827 828 830 830 831 831 832 832 833 833 834 835 835 836 837 838 838 839 839 840 840 841 841 841 842 842 843 843 844 844 845
775 777 781 785 789 794 794 791 787 785 781 774 771 768 767 768 768 767 767 767 765 767 768 765 765 770 775 778 780 778 777 777 776 778 780 781 783 784 786 787 788 789 791 794 795 798 799 801 802 804 805 806 807 810 813 813 814 816 817 818 819 821 822 823 825 826 827 829 830 831 831 832 833 833 833 834 834 835 836 837 837 838 839 839 840 840 841 841 842 842 842 843 843 844 844 845 846
777 779 780 787 791 793 790 788 787 782 777 774 771 765 764 766 767 766 765 766 764 767 768 766 769 771 774 779 780 778 778 778 777 779 781 782 784 785 787 788 789 790 792 794 796 798 800 802 803 804 806 807 807 810 813 814 814 815 817 819 820 821 822 823 825 826 828 829 830 831 832 832 833 834 834 834 835 836 837 838 838 839 839 840 840 841 841 842 842 842 843 843 843 844 844 845 846
777 781 781 788 791 789 789 788 786 780 775 775 769 762 763 764 766 766 764 766 765 767 768 766 769 768 775 781 780 779 778 779 779 779 782 783 785 786 787 789 790 791 793 795 797 798 800 802 804 805 807 808 809 810 813 815 815 815 817 819 820 821 821 823 825 827 828 829 831 832 832 833 834 834 835 835 836 837 838 839 839 840 840 840 841 841 842 842 842 843 843 843 844 844 845 845 846
776 781 780 786 790 789 792 789 785 782 776 772 769 763 762 763 765 764 762 765 765 768 767 764 764 765 776 781 779 780 779 779 779 780 783 783 786 787 788 789 791 792 793 795 796 798 800 802 804 806 808 809 810 811 813 815 816 815 817 819 821 821 821 823 825 827 829 830 831 832 833 834 835 835 836 836 837 838 839 840 840 840 841 841 842 842 843 843 843 843 843 844 844 844 845 845 846
774 779 777 786 795 792 790 787 783 783 774 769 770 766 763 764 764 761 761 766 767 767 765 762 762 767 777 781 782 780 778 780 780 781 783 784 786 788 789 790 791 793 794 795 797 798 800 802 804 806 808 810 811 812 813 815 816 817 819 820 821 822 822 823 825 827 829 830 832 833 834 835 836 836 837 837 838 839 840 840 840 841 841 842 842 843 843 843 844 844 844 844 844 845 845 846 846
773 777 778 785 795 792 787 785 782 780 772 769 770 767 765 764 762 761 762 767 769 765 762 763 763 768 774 777 780 776 777 779 780 782 783 785 787 788 790 791 792 793 795 796 798 800 801 803 805 806 808 810 811 812 814 815 816 818 819 821 822 822 822 824 826 828 829 831 832 833 834 835 836 837 837 838 839 840 840 841 841 841 841 842 843 843 844 844 845 845 845 845 845 845 846 846 847
773 775 780 785 791 790 785 784 783 779 771 768 769 766 766 766 762 764 763 763 767 765 765 768 766 768 769 769 770 771 775 779 780 782 783 785 787 788 790 792 793 794 796 797 799 801 802 804 806 807 809 810 811 812 814 815 817 819 820 821 822 823 823 825 826 828 830 832 833 834 835 836 837 837 838 838 839 840 840 841 840 841 841 842 843 844 844 845 845 846 846 846 846 846 846 847 847
772 775 782 786 790 788 782 781 780 775 769 767 767 766 766 768 765 764 762 761 768 769 769 770 768 767 767 766 767 769 776 778 779 781 783 785 786 789 790 792 793 795 797 798 800 802 804 806 807 808 809 811 812 813 815 816 818 820 821 822 823 824 824 826 827 829 831 833 834 835 836 836 837 837 838 839 839 840 840 840 840 841 842 843 843 844 845 845 846 846 846 846 846 847 847 847 847
773 778 784 785 787 782 775 775 773 771 769 767 767 768 768 768 767 764 763 767 770 772 771 770 770 768 766 767 769 772 776 778 780 781 782 784 785 788 789 792 794 796 798 799 802 803 805 807 808 809 811 812 813 814 816 817 819 820 822 823 824 825 826 827 828 830 831 833 834 835 836 837 837 838 838 839 839 840 839 840 840 841 842 843 844 845 845 846 846 846 846 847 847 847 847 847 847
775 782 784 782 782 775 770 771 770 770 769 767 767 769 768 766 766 764 766 773 772 773 775 772 773 771 769 770 772 774 777 779 780 780 781 783 784 786 788 791 793 796 798 800 802 804 806 808 809 811 812 814 815 816 817 818 819 821 822 823 825 826 827 829 829 831 832 833 834 835 836 837 837 838 838 839 839 839 839 840 840 841 841 843 844 845 845 846 846 847 847 847 848 848 848 848 848
775 780 782 779 776 771 770 770 769 768 768 768 768 768 767 765 765 764 767 773 772 773 775 774 775 774 772 772 773 775 777 779 780 780 781 782 784 785 788 790 793 796 798 801 803 805 807 808 810 812 813 815 817 818 818 819 820 821 822 823 825 827 828 830 831 831 832 834 835 835 836 837 837 838 839 839 839 840 840 840 840 841 842 842 843 844 845 846 847 847 848 848 848 849 849 849 849
775 776 776 774 775 772 767 767 767 768 769 768 768 767 766 764 765 765 766 772 772 769 768 769 770 771 772 773 773 775 776 778 779 779 780 782 784 786 788 791 793 796 799 801 803 806 807 809 810 811 813 815 818 819 819 820 821 821 822 823 825 826 828 830 832 832 832 834 835 836 837 837 837 838 838 839 839 839 840 840 840 841 842 842 843 844 845 846 847 848 848 849 849 849 849 849 850
774 774 773 771 775 773 763 763 766 766 768 768 768 767 765 765 766 766 766 768 767 764 764 764 765 766 768 769 771 774 776 777 777 778 779 781 784 786 789 792 794 797 799 802 804 806 808 809 810 811 812 813 816 819 820 821 822 822 823 823 824 827 828 830 831 831 832 834 835 836 837 837 837 837 838 838 838 839 839 839 840 840 841 842 843 844 845 846 847 847 848 849 849 849 849 850 850
772 773 773 772 772 770 763 763 764 764 766 767 767 766 765 765 766 768 767 765 763 762 762 762 763 765 766 767 770 772 774 775 776 777 778 780 782 784 788 791 794 797 800 802 804 806 808 810 812 813 813 813 816 818 821 822 822 823 824 824 825 827 829 830 831 831 833 834 835 836 836 836 837 837 837 838 838 838 838 838 839 840 841 842 842 843 844 845 846 847 848 849 849 849 849 850 850
772 772 772 771 771 768 764 763 763 765 765 765 766 765 765 765 767 768 767 764 763 762 760 760 762 765 767 769 770 771 773 774 776 777 778 780 781 784 788 792 795 798 801 803 804 805 807 810 812 814 816 816 817 817 819 822 823 824 824 825 826 827 828 829 830 831 833 834 834 835 836 836 836 836 837 837 837 837 837 837 838 839 840 841 842 843 844 845 845 846 847 848 848 849 849 849 850
772 771 769 769 769 765 763 764 763 764 764 764 766 764 764 764 764 766 766 765 764 761 760 761 763 765 768 770 771 773 773 775 776 778 779 780 782 785 789 793 796 799 801 802 804 806 807 809 809 811 815 817 817 816 819 822 824 824 825 825 826 827 828 829 830 831 832 833 834 835 835 836 836 836 836 836 837 837 836 837 838 838 839 840 840 842 843 843 844 845 846 847 848 848 848 849 849
768 767 767 767 766 763 762 763 761 762 763 764 763 762 763 763 763 763 765 766 764 762 762 763 765 767 769 770 772 773 774 776 776 778 779 780 782 785 790 793 797 800 801 803 805 808 809 809 809 811 815 817 816 816 819 823 824 824 825 825 826 828 828 829 830 831 832 833 834 835 836 836 835 836 837 837 837 836 837 837 838 838 838 838 839 840 841 842 843 844 845 846 847 847 848 848 848
764 765 766 764 764 763 763 761 761 762 761 761 761 761 764 764 764 762 764 766 764 764 765 766 768 769 770 770 772 773 775 776 776 777 778 779 781 785 790 793 797 800 802 804 807 810 810 809 810 813 817 818 816 816 819 822 824 824 825 826 826 827 828 829 830 831 832 833 834 835 835 834 835 836 837 837 837 837 837 838 838 838 838 838 839 839 840 841 842 843 844 845 846 846 847 847 848
763 764 765 764 764 763 762 760 761 762 759 758 759 762 766 766 764 761 763 766 765 766 768 768 770 770 771 771 772 773 774 775 776 777 777 779 782 786 791 794 799 802 803 804 806 808 810 810 811 814 817 818 817 817 819 821 823 824 825 826 826 827 828 829 830 831 832 832 833 834 833 833 834 835 835 835 836 837 837 838 839 839 838 838 838 839 840 841 842 842 843 844 845 845 846 847 847
764 764 765 764 763 761 759 759 761 761 758 757 758 763 767 766 765 764 764 766 766 768 769 770 771 771 772 772 772 773 774 775 776 777 778 780 785 790 794 796 800 802 802 803 804 805 807 809 811 814 816 817 817 818 819 821 822 823 824 825 826 827 827 828 829 830 830 831 832 832 832 833 833 834 834 835 835 836 836 837 838 838 838 838 838 839 840 840 841 842 843 844 844 845 846 846 847
765 767 767 766 766 763 759 761 762 760 759 756 758 767 766 761 763 765 766 766 767 770 771 771 771 771 773 773 773 774 775 775 776 777 780 784 788 792 795 797 798 799 800 802 803 804 806 808 810 813 815 815 816 818 819 820 821 822 823 825 826 826 827 828 829 829 829 830 831 831 832 832 833 833 834 834 835 836 836 836 837 838 838 838 838 838 839 839 840 841 842 844 844 845 846 846 847
767 769 771 774 774 765 758 761 762 758 759 757 758 768 764 755 760 764 766 767 768 771 771 771 772 772 773 773 774 775 776 776 777 779 782 787 790 793 795 795 796 797 799 801 803 804 806 807 809 812 814 815 816 817 819 820 821 822 823 824 825 826 827 827 828 829 829 830 831 831 831 832 832 833 833 834 835 836 837 837 837 837 837 838 838 838 839 839 840 841 842 843 844 844 845 846 847
771 773 775 780 776 766 759 760 760 755 758 759 759 767 762 755 758 762 765 767 768 770 770 771 773 773 773 774 776 776 777 777 778 781 785 789 791 794 794 794 796 796 798 801 802 804 805 807 809 811 812 814 815 817 818 819 820 822 823 824 825 826 826 827 828 828 829 830 831 831 832 832 833 833 834 835 836 836 837 838 838 837 837 837 837 838 838 839 839 840 841 842 843 844 845 846 847
774 774 775 779 776 770 763 759 759 756 757 759 759 765 762 757 760 761 764 767 768 770 770 772 773 774 774 775 776 777 778 778 779 782 786 790 792 793 791 791 795 796 798 800 801 803 804 806 808 810 811 812 814 816 818 819 821 822 823 824 825 826 826 827 828 829 830 830 831 832 832 833 833 833 834 834 835 835 836 837 837 837 837 837 837 837 838 839 839 839 840 841 843 844 845 846 847
776 776 774 778 778 773 766 759 760 760 759 759 759 762 759 759 762 762 764 766 769 770 770 772 774 775 775 775 777 778 778 779 779 781 786 790 791 790 788 790 793 796 798 799 800 802 803 805 807 808 809 811 813 815 817 819 821 822 823 824 825 826 827 827 828 829 830 830 831 831 832 832 832 833 833 834 834 834 835 835 836 836 836 837 837 837 838 838 838 839 840 841 842 843 844 844 846
773 774 772 776 777 775 771 762 760 760 760 760 763 763 758 760 765 763 763 766 768 770 769 771 774 775 776 776 777 777 778 778 778 781 785 788 789 789 789 790 793 796 798 800 801 802 804 805 806 808 809 811 813 815 817 819 821 822 824 825 826 826 827 827 828 829 830 830 830 831 831 831 832 832 833 833 833 833 834 835 835 836 836 837 837 837 837 838 839 839 840 841 841 841 841 842 844
768 771 771 773 772 771 768 763 760 760 761 761 762 760 755 760 767 763 762 765 767 769 769 770 773 775 775 776 777 777 778 777 778 781 784 787 789 789 789 790 793 795 798 800 801 802 804 805 806 808 809 812 814 815 817 819 821 823 824 825 826 826 827 828 828 829 830 830 830 831 831 831 831 832 832 833 833 833 833 834 835 836 836 836 836 837 837 838 839 839 840 840 839 840 840 842 844
769 771 772 773 773 767 761 761 762 762 762 761 761 759 756 761 766 764 762 765 767 768 769 770 771 773 774 775 776 776 777 776 778 781 784 786 788 789 789 790 793 796 798 800 801 802 803 805 806 808 809 812 814 815 816 818 820 822 824 825 825 826 827 828 829 829 830 831 831 831 831 831 832 832 832 833 833 833 833 834 835 835 836 836 836 836 837 838 839 839 840 839 840 841 842 842 844
771 772 771 773 775 766 759 762 764 764 762 762 766 763 761 766 768 765 763 766 768 767 768 770 771 772 773 774 775 775 776 777 779 781 783 785 787 788 788 789 792 795 796 798 799 801 803 805 806 807 809 811 813 814 816 818 820 822 823 824 825 826 827 828 829 830 831 832 832 832 832 832 832 832 833 833 833 833 833 833 834 835 835 836 836 836 837 838 839 839 840 840 840 842 843 843 844
772 773 773 770 770 765 761 763 765 765 761 762 768 765 765 772 771 767 766 767 768 766 767 769 770 772 772 774 775 775 776 777 779 781 783 784 785 787 787 787 790 792 794 796 798 800 802 804 806 807 808 810 812 814 815 817 819 821 823 824 824 825 827 828 829 830 831 832 833 833 833 833 833 833 833 834 834 834 834 834 834 835 836 836 836 836 837 838 839 839 840 840 841 842 843 843 844
772 772 771 766 767 766 761 761 766 768 766 764 764 764 768 774 773 772 770 770 770 768 768 768 769 771 772 773 775 775 776 777 779 781 782 784 785 786 787 787 788 790 793 795 797 800 802 803 805 806 808 809 811 812 814 816 819 822 823 824 825 826 827 828 830 831 832 833 834 834 834 834 834 834 834 834 835 835 835 835 835 835 836 836 836 837 837 838 839 840 841 841 841 842 842 843 844
772 772 768 763 764 763 760 762 765 766 767 766 762 765 770 773 775 777 774 772 772 771 771 771 770 770 771 773 773 774 775 776 778 780 781 783 784 785 786 787 788 790 792 795 797 799 801 802 804 805 807 808 810 811 813 816 819 821 823 824 825 826 827 829 830 831 833 833 834 835 835 835 835 835 835 835 835 835 835 835 835 835 836 836 836 837 837 838 839 840 841 841 841 841 842 843 843
770 767 762 760 759 759 761 764 764 763 765 768 767 769 772 773 775 776 774 774 774 773 773 773 772 771 771 773 773 773 774 775 776 778 780 782 783 785 786 787 789 791 793 795 797 798 800 802 803 804 806 807 809 811 812 815 818 821 822 822 824 825 827 829 830 831 833 834 835 835 836 836 836 836 836 836 836 836 836 836 836 836 836 836 837 837 837 838 839 840 840 841 841 841 841 842 842
766 759 755 759 760 760 763 762 761 763 766 772 773 769 770 773 772 773 774 773 773 774 773 771 770 770 771 772 773 773 774 775 775 777 779 781 782 784 785 787 790 792 794 795 795 797 798 799 800 802 804 806 808 810 812 815 818 820 821 821 822 824 826 828 830 831 833 834 835 836 836 836 836 836 836 836 837 837 837 836 836 836 837 837 837 838 838 838 839 840 840 841 841 841 841 841 842
759 755 756 760 760 760 763 760 760 764 767 771 772 766 766 770 772 775 776 773 773 773 772 770 768 768 768 769 771 772 773 774 774 775 777 779 782 784 786 788 791 792 793 794 794 794 794 796 798 801 803 805 808 810 812 814 817 819 820 820 821 823 825 827 829 831 833 834 835 836 837 837 837 837 837 837 837 837 837 837 837 837 838 838 838 838 839 839 839 839 839 840 840 840 841 841 841
755 759 761 761 761 761 761 758 761 770 769 765 767 767 768 769 771 775 776 773 772 771 768 768 767 766 766 766 767 769 770 771 773 774 776 778 781 784 787 789 790 791 792 792 791 792 794 796 798 801 803 806 808 810 812 815 817 818 819 819 820 823 825 827 829 831 832 834 835 837 838 838 838 837 837 838 838 838 838 838 838 839 839 839 839 839 839 839 839 839 839 840 840 840 840 840 841
757 763 762 761 764 766 764 760 760 768 771 766 771 775 772 770 767 768 771 769 768 768 765 765 765 764 764 764 765 767 769 770 772 773 775 778 781 784 787 788 789 790 790 790 791 792 795 796 798 801 803 806 809 810 812 814 816 817 818 818 819 822 824 827 829 831 832 834 835 837 838 838 838 838 838 838 839 839 839 839 839 839 840 840 840 840 840 840 840 840 840 840 840 840 840 840 841
760 758 756 758 762 762 764 765 763 769 774 773 780 784 775 772 768 764 766 767 768 770 767 766 766 764 763 763 764 766 767 770 771 774 776 778 782 784 786 788 788 788 789 790 791 794 796 798 800 801 803 806 809 810 812 814 816 817 818 819 819 821 824 826 828 830 832 834 835 836 838 839 839 839 839 839 839 840 840 840 840 841 841 841 841 841 841 841 841 841 841 841 841 841 841 841 841
759 753 753 759 764 764 766 769 769 775 780 778 786 789 777 772 769 764 764 767 771 774 771 769 767 765 764 763 764 765 767 769 771 773 775 778 781 783 785 786 786 787 787 789 792 796 799 801 804 804 805 807 809 810 812 813 815 817 818 820 820 821 823 825 827 829 831 833 835 836 838 839 839 839 839 840 840 841 841 841 841 842 842 842 842 842 842 842 842 843 842 842 843 842 842 842 842
757 753 757 765 773 777 778 778 779 780 780 781 788 787 777 771 767 766 767 767 771 774 772 771 768 765 765 764 764 766 768 770 771 773 776 778 781 783 785 786 786 785 785 787 793 798 802 806 809 809 807 808 810 811 812 813 814 816 818 820 821 822 823 825 827 828 830 832 834 836 837 838 839 840 840 840 841 841 841 842 842 843 843 843 844 844 844 844 844 845 845 844 844 844 844 844 844
755 754 759 766 778 790 793 793 795 788 779 784 789 783 778 774 769 769 771 770 771 773 772 771 769 768 767 765 765 767 769 771 773 775 777 780 783 786 787 787 787 786 785 788 795 800 803 808 812 812 810 809 810 811 812 813 814 816 818 820 821 823 824 825 827 828 830 832 833 835 837 838 839 840 841 841 841 842 842 843 843 844 844 844 845 845 845 846 846 846 846 846 846 846 846 846 846
757 755 754 760 767 778 786 785 785 782 779 785 787 782 779 775 770 770 771 771 772 771 772 771 770 769 767 766 767 768 771 773 774 775 777 779 782 787 790 790 787 786 788 793 797 800 804 808 811 811 810 809 809 810 811 813 814 816 818 820 822 823 824 825 826 828 829 831 833 834 835 837 838 840 841 841 842 843 843 844 844 844 845 845 845 846 846 847 847 848 848 848 847 848 848 848 848
762 760 755 758 756 760 779 789 785 781 780 784 786 783 780 775 773 772 772 772 773 772 773 772 770 769 767 767 769 770 772 774 774 775 776 777 777 781 789 794 791 788 791 798 800 802 805 808 810 809 807 807 808 810 811 812 813 815 817 819 821 822 823 824 825 827 829 831 832 833 834 835 837 839 840 841 842 843 844 844 845 845 845 846 846 846 847 848 848 849 849 849 849 849 849 849 849
760 761 756 760 755 754 776 795 797 790 783 785 790 786 780 776 774 774 774 775 775 776 775 773 772 769 767 768 768 769 770 771 773 774 776 779 777 776 785 794 794 791 794 800 802 803 805 805 804 804 804 806 807 809 810 811 812 814 816 817 820 821 823 823 824 826 828 830 831 832 833 834 835 838 839 841 842 843 844 845 845 846 846 846 846 847 848 848 849 850 850 851 851 851 851 851 851
752 756 752 757 760 759 766 780 793 793 784 786 793 790 783 778 774 773 775 777 779 778 777 775 774 769 768 769 768 768 769 770 772 774 775 780 780 777 781 790 791 791 795 799 801 803 802 799 798 803 807 807 806 807 809 810 811 813 814 816 818 820 822 823 824 825 828 829 830 831 833 833 834 836 839 840 842 843 844 845 845 846 846 847 847 847 848 849 850 851 851 852 852 852 852 852 852
746 745 745 753 760 764 768 777 785 788 790 792 793 796 789 775 770 769 770 775 778 778 778 776 775 773 772 773 772 773 774 774 776 776 776 779 780 777 779 785 786 789 795 799 801 802 800 798 799 804 807 805 806 808 808 809 811 812 814 815 817 819 821 823 824 825 827 828 829 830 832 833 834 836 838 839 841 842 843 844 845 846 846 847 847 848 849 849 850 851 852 852 853 853 853 853 853
747 746 749 754 757 761 766 772 770 773 790 796 791 792 783 770 773 771 766 771 776 776 778 777 777 778 777 778 778 777 777 777 777 778 779 780 780 778 777 780 784 789 795 799 801 801 799 800 802 804 804 804 806 807 808 809 810 811 814 815 817 819 820 823 824 825 825 827 829 830 831 832 833 835 837 838 840 841 842 844 844 846 846 847 848 848 849 850 850 851 852 853 853 854 854 854 854
749 750 754 758 762 765 765 771 773 770 780 790 790 788 776 772 783 781 772 775 776 774 777 779 781 782 781 781 783 781 780 780 780 779 781 781 781 780 779 782 787 790 794 798 800 800 799 800 801 802 803 804 805 807 808 809 810 812 814 815 816 818 819 822 823 824 825 826 829 831 831 832 832 834 836 837 839 841 842 843 844 845 846 847 848 848 849 850 851 852 852 853 854 854 855 855 855
749 748 751 755 760 762 762 773 782 776 775 782 784 779 774 778 788 786 781 781 778 776 777 780 783 783 784 785 785 784 783 783 784 782 782 783 784 785 785 787 790 792 794 797 798 799 798 799 801 802 803 804 805 807 808 809 810 811 813 814 816 817 819 821 822 824 825 826 828 830 831 831 831 834 836 837 838 840 842 843 844 845 846 846 847 848 848 850 850 852 852 853 854 854 855 856 855